Location: Seattle
(47.6064°N, 122.3308°W)
Time: 06:07:59
(UTC-07:00)

DUCHIFAT 1 - Visible Passes

Search period start: 27 March 2023 00:00
Search period end: 06 April 2023 00:00
Orbit: 570 x 585 km, 98.0° (Epoch: 26 March)

Date Brightness Start Highest point End Pass type
(mag) Time Alt. Az. Time Alt. Az. Time Alt. Az.
27 Mar ? 03:42:44 10° NE 03:45:50 25° E 03:45:50 25° E visible
27 Mar ? 05:17:48 10° N 05:21:27 32° WNW 05:22:08 30° W visible
28 Mar ? 03:46:53 10° NE 03:50:15 28° E 03:50:15 28° E visible
28 Mar ? 05:22:06 10° N 05:25:39 29° WNW 05:26:33 26° W visible
29 Mar ? 03:51:01 10° NNE 03:54:39 31° E 03:54:39 31° E visible
29 Mar ? 05:26:22 10° N 05:29:49 27° WNW 05:30:57 23° W visible
30 Mar ? 03:55:08 10° NNE 03:58:52 34° E 03:59:01 33° ESE visible
30 Mar ? 05:30:38 10° N 05:33:58 25° WNW 05:35:19 21° W visible
31 Mar ? 03:59:15 10° NNE 04:03:04 37° E 04:03:23 36° ESE visible
31 Mar ? 05:34:54 10° NNW 05:38:07 23° WNW 05:39:40 18° W visible
01 Apr ? 04:03:21 10° NNE 04:07:13 41° E 04:07:43 39° ESE visible
01 Apr ? 05:39:08 10° NNW 05:42:13 21° WNW 05:44:01 16° W visible
02 Apr ? 04:07:26 10° NNE 04:11:22 45° E 04:12:02 41° SE visible
02 Apr ? 05:43:23 10° NNW 05:46:18 19° WNW 05:48:19 14° W visible
03 Apr ? 04:11:30 10° NNE 04:15:29 50° E 04:16:19 42° SE visible
03 Apr ? 05:47:36 10° NNW 05:50:22 18° WNW 05:52:37 12° W visible
04 Apr ? 04:15:34 10° NNE 04:19:35 55° E 04:20:35 42° SSE visible
04 Apr ? 05:51:49 10° NNW 05:54:25 17° WNW 05:56:52 10° W visible
05 Apr ? 04:19:36 10° NNE 04:23:39 61° E 04:24:50 41° SSE visible
05 Apr ? 05:56:02 10° NNW 05:58:26 15° WNW 06:00:48 10° W visible
